Date String (YYYY-MM-DD hh:mm:ss) UTC,Instrument flags,Ambient pressure (hPa),Sample flow (lpm),Bypass flow (lpm),Sample temperature (°C),Ambient temperature (°C),ASC tube jacket temperature (°C),LED temperature (°C),Box temperature (°C),Sample RH (%),Span deviation,Mass concentration (μg/m³),Mass concentration (μg/m³),Mass concentration (μg/m³)
DateTimeUTC,F1_M11,P_M11,Q1_M11,Q2_M11,T1_M11,T2_M11,T3_M11,T4_M11,T5_M11,U1_M11,ZSPAN_M11,X0_M11,X2_M11,X1_M11
2022-06-20 09:00:00,,0823.8,5.00,0.00,29.7,28.6,00.0,38.4,31.6,22.5,0000.0,0006.01,0003.33,0002.47
2022-06-20 09:01:00,,0823.7,5.01,0.00,29.7,28.7,00.0,38.5,31.6,22.3,0000.0,0006.03,0003.32,0002.47
2022-06-20 09:02:00,,0823.8,5.00,0.00,29.7,28.7,00.0,38.5,31.6,22.2,0000.0,0006.05,0003.29,0002.46
2022-06-20 09:03:00,,0823.7,5.00,0.00,29.7,28.8,00.0,38.5,31.6,22.1,0000.0,0005.84,0003.24,0002.46
2022-06-20 09:04:00,,0823.7,5.01,0.00,29.7,28.8,00.0,38.5,31.7,22.0,0000.0,0005.70,0003.20,0002.45
2022-06-20 09:05:00,,0823.7,5.00,0.00,29.8,28.8,00.0,38.5,31.7,22.0,0000.0,0005.66,0003.23,0002.47
2022-06-20 09:06:00,,0823.7,5.00,0.00,29.8,28.9,00.0,38.5,31.7,21.9,0000.0,0005.35,0003.21,0002.46
2022-06-20 09:07:00,,0823.7,5.01,0.00,29.8,28.9,00.0,38.6,31.7,21.9,0000.0,0005.32,0003.21,0002.44
2022-06-20 09:08:00,,0823.7,5.01,0.00,29.8,28.9,00.0,38.6,31.8,21.8,0000.0,0005.51,0003.23,0002.43
2022-06-20 09:09:00,,0823.7,5.00,0.00,29.9,29.0,00.0,38.6,31.8,21.8,0000.0,0005.76,0003.25,0002.43
2022-06-20 09:10:00,,0823.7,5.00,0.00,29.9,29.0,00.0,38.6,31.8,21.8,0000.0,0006.20,0003.29,0002.44
2022-06-20 09:11:00,,0823.7,5.00,0.00,29.9,28.4,00.0,38.6,31.7,21.8,0000.0,0006.82,0003.29,0002.44
2022-06-20 09:12:00,,0823.7,5.01,0.00,29.8,27.6,00.0,38.5,31.5,22.0,0000.0,0006.83,0003.29,0002.45
2022-06-20 09:13:00,,0823.7,4.98,0.00,29.7,27.4,00.0,38.5,31.4,22.2,0000.0,0006.77,0003.30,0002.46
2022-06-20 09:14:00,,0823.7,5.01,0.00,29.7,27.4,00.0,38.5,31.3,22.3,0000.0,0006.90,0003.31,0002.46
2022-06-20 09:15:00,,0823.7,5.00,0.00,29.6,27.5,00.0,38.5,31.3,22.3,0000.0,0006.71,0003.28,0002.45
2022-06-20 09:16:00,,0823.7,4.98,0.00,29.6,27.6,00.0,38.5,31.3,22.3,0000.0,0006.83,0003.28,0002.43
2022-06-20 09:17:00,,0823.7,5.00,0.00,29.6,27.8,00.0,38.4,31.3,22.3,0000.0,0007.00,0003.31,0002.43
2022-06-20 09:18:00,,0823.7,5.00,0.00,29.6,27.9,00.0,38.4,31.4,22.3,0000.0,0006.85,0003.30,0002.44
2022-06-20 09:19:00,,0823.7,5.00,0.00,29.6,28.1,00.0,38.4,31.4,22.3,0000.0,0006.79,0003.29,0002.44
2022-06-20 09:20:00,,0823.7,5.01,0.00,29.6,28.2,00.0,38.4,31.4,22.3,0000.0,0006.74,0003.30,0002.44
2022-06-20 09:21:00,,0823.7,4.99,0.00,29.6,28.3,00.0,38.4,31.4,22.3,0000.0,0006.34,0003.26,0002.41
2022-06-20 09:22:00,,0823.8,5.00,0.00,29.6,28.4,00.0,38.4,31.5,22.3,0000.0,0005.59,0003.23,0002.41
2022-06-20 09:23:00,,0823.7,4.99,0.00,29.6,28.4,00.0,38.5,31.5,22.2,0000.0,0005.55,0003.24,0002.41
2022-06-20 09:24:00,,0823.7,5.00,0.00,29.6,28.5,00.0,38.5,31.5,22.0,0000.0,0005.91,0003.25,0002.40
2022-06-20 09:25:00,,0823.7,5.00,0.00,29.6,28.5,00.0,38.5,31.5,21.9,0000.0,0006.36,0003.28,0002.39
2022-06-20 09:26:00,,0823.7,5.00,0.00,29.7,28.6,00.0,38.5,31.6,21.9,0000.0,0006.47,0003.31,0002.40
2022-06-20 09:27:00,,0823.7,5.00,0.00,29.7,28.7,00.0,38.5,31.6,22.0,0000.0,0006.34,0003.29,0002.40
2022-06-20 09:28:00,,0823.7,5.00,0.00,29.7,28.7,00.0,38.5,31.6,22.0,0000.0,0006.03,0003.23,0002.37
2022-06-20 09:29:00,,0823.7,5.00,0.00,29.7,28.8,00.0,38.5,31.7,22.0,0000.0,0006.03,0003.23,0002.35
2022-06-20 09:30:00,,0823.7,4.99,0.00,29.8,28.8,00.0,38.5,31.7,21.9,0000.0,0006.17,0003.25,0002.36
2022-06-20 09:31:00,,0823.7,5.00,0.00,29.8,28.8,00.0,38.5,31.7,21.9,0000.0,0006.13,0003.24,0002.37
2022-06-20 09:32:00,,0823.6,5.01,0.00,29.8,28.9,00.0,38.6,31.7,21.9,0000.0,0005.94,0003.21,0002.37
2022-06-20 09:33:00,,0823.7,4.99,0.00,29.8,28.9,00.0,38.6,31.7,21.8,0000.0,0005.92,0003.21,0002.38
2022-06-20 09:34:00,,0823.7,5.02,0.00,29.8,28.9,00.0,38.6,31.7,21.7,0000.0,0005.93,0003.20,0002.37
2022-06-20 09:35:00,,0823.7,5.01,0.00,29.8,29.0,00.0,38.6,31.8,21.7,0000.0,0005.88,0003.22,0002.36
2022-06-20 09:36:00,,0823.7,4.99,0.00,29.9,29.0,00.0,38.6,31.8,21.7,0000.0,0005.11,0003.17,0002.36
2022-06-20 09:37:00,,0823.7,4.99,0.00,29.9,29.0,00.0,38.7,31.8,21.6,0000.0,0005.29,0003.15,0002.35
2022-06-20 09:38:00,,0823.7,5.01,0.00,29.9,28.6,00.0,38.6,31.8,21.6,0000.0,0005.66,0003.15,0002.36
2022-06-20 09:39:00,,0823.7,5.00,0.00,29.8,27.8,00.0,38.6,31.5,21.6,0000.0,0006.14,0003.21,0002.39
2022-06-20 09:40:00,,0823.7,5.00,0.00,29.7,27.4,00.0,38.5,31.4,21.7,0000.0,0006.30,0003.24,0002.40
2022-06-20 09:41:00,,0823.7,5.01,0.00,29.7,27.4,00.0,38.5,31.3,21.8,0000.0,0006.18,0003.22,0002.40
2022-06-20 09:42:00,,0823.7,4.98,0.00,29.6,27.5,00.0,38.5,31.3,21.9,0000.0,0006.05,0003.22,0002.41
2022-06-20 09:43:00,,0823.7,5.00,0.00,29.6,27.6,00.0,38.5,31.3,21.9,0000.0,0006.28,0003.27,0002.40
2022-06-20 09:44:00,,0823.6,5.00,0.00,29.6,27.8,00.0,38.5,31.4,21.9,0000.0,0006.29,0003.28,0002.40
2022-06-20 09:45:00,,0823.7,5.00,0.00,29.6,27.9,00.0,38.5,31.4,21.9,0000.0,0006.21,0003.28,0002.42
2022-06-20 09:46:00,,0823.7,5.00,0.00,29.6,28.0,00.0,38.5,31.4,21.9,0000.0,0006.12,0003.26,0002.42
2022-06-20 09:47:00,,0823.7,5.00,0.00,29.6,28.1,00.0,38.5,31.4,21.9,0000.0,0006.23,0003.28,0002.42
2022-06-20 09:48:00,,0823.7,4.99,0.00,29.6,28.3,00.0,38.5,31.5,21.9,0000.0,0006.21,0003.33,0002.44
2022-06-20 09:49:00,,0823.7,4.99,0.00,29.6,28.3,00.0,38.5,31.5,21.9,0000.0,0005.92,0003.33,0002.45
2022-06-20 09:50:00,,0823.7,5.00,0.00,29.6,28.4,00.0,38.5,31.5,21.9,0000.0,0006.58,0003.34,0002.45
2022-06-20 09:51:00,,0823.7,5.00,0.00,29.6,28.5,00.0,38.5,31.5,21.8,0000.0,0007.31,0003.36,0002.46
2022-06-20 09:52:00,,0823.8,5.00,0.00,29.7,28.6,00.0,38.5,31.6,21.8,0000.0,0007.38,0003.38,0002.47
2022-06-20 09:53:00,,0823.7,5.00,0.00,29.7,28.6,00.0,38.5,31.6,21.7,0000.0,0007.58,0003.40,0002.47
2022-06-20 09:54:00,,0823.8,5.00,0.00,29.7,28.7,00.0,38.5,31.6,21.7,0000.0,0007.77,0003.41,0002.49
2022-06-20 09:55:00,,0823.8,4.99,0.00,29.7,28.7,00.0,38.5,31.6,21.7,0000.0,0007.90,0003.45,0002.52
2022-06-20 09:56:00,,0823.7,5.00,0.00,29.7,28.8,00.0,38.5,31.7,21.6,0000.0,0007.93,0003.45,0002.50
2022-06-20 09:57:00,,0823.7,5.00,0.00,29.8,28.8,00.0,38.5,31.7,21.6,0000.0,0008.18,0003.47,0002.51
2022-06-20 09:58:00,,0823.7,5.01,0.00,29.8,28.9,00.0,38.5,31.7,21.6,0000.0,0008.60,0003.50,0002.55
2022-06-20 09:59:00,,0823.8,4.99,0.00,29.8,28.9,00.0,38.6,31.8,21.6,0000.0,0008.53,0003.48,0002.56
